Weather History for KELN - April, 2013

Change the Weather History Date:

Saturday, April 20, 2013

  Actual Average (KYKM) Record (KYKM)
Temperature  
Mean Temperature 52 °F 50 °F  
Max Temperature 60 °F 65 °F 84 °F (1956)
Min Temperature 45 °F 35 °F 22 °F (1985)
Degree Days  
Heating Degree Days 13 15  
Month to date heating degree days 338  
Since 1 July heating degree days 5542  
Cooling Degree Days 0 0  
Month to date cooling degree days 0  
Year to date cooling degree days 0  
Growing Degree Days 2 (Base 50)    
Moisture  
Dew Point 35 °F    
Average Humidity 57    
Maximum Humidity 68    
Minimum Humidity 41    
Precipitation  
Precipitation 0.00 in 0.02 in 0.39 in (1963)
Month to date precipitation 0.35  
Year to date precipitation 2.89  
Snow  
Snow 0.00 in 0.00 in T in (2008)
Month to date snowfall 0.0  
Year to date snowfall 8.6  
Since 1 July snowfall 21.6  
Snow Depth -    
Sea Level Pressure  
Sea Level Pressure 30.13 in    
Wind  
Wind Speed 19 mph (NW)    
Max Wind Speed 28 mph    
Max Gust Speed 38 mph    
Visibility 10 miles    
Events      
T = Trace of Precipitation, MM = Missing Value Source: NWS Daily Summary

Daily Weather History Graph

Daily Weather History Graph

Search for Another Location

Airport or City:

Trip Planner

Search our weather history database for the weather conditions in past years. The results will help you decide how hot, cold, wet, or windy it might be!

Date:

Astronomy

Apr. 20, 2013 Rise Set
Actual Time 6:04 AM PDT 7:58 PM PDT
Civil Twilight 5:32 AM PDT 8:30 PM PDT
Nautical Twilight 4:52 AM PDT 9:11 PM PDT
Astronomical Twilight 4:08 AM PDT 9:55 PM PDT
Moon 2:28 PM PDT (4/20) 3:17 AM PDT (4/20)
Length of Visible Light 14h 58m
Length of Day
13h 53m
Waxing Gibbous, 72% of the Moon is Illuminated
Apr 20
Waxing Gibbous
Apr 25
Full
May 2
Last Quarter
May 9
New
May 17
First Quarter

Hourly Weather History & Observations

Time (PDT) Temp. Windchill Dew Point Humidity Pressure Visibility Wind Dir Wind Speed Gust Speed Precip Events Conditions
12:53 AM 46.9 °F - 37.0 °F 68% 30.08 in 10.0 mi WNW 18.4 mph - N/A   Clear
1:53 AM 46.9 °F - 36.0 °F 66% 30.09 in 10.0 mi WNW 15.0 mph 25.3 mph N/A   Scattered Clouds
2:53 AM 46.0 °F 38.8 °F 36.0 °F 68% 30.09 in 10.0 mi WNW 18.4 mph 25.3 mph N/A   Clear
3:53 AM 46.0 °F 39.0 °F 35.1 °F 66% 30.10 in 10.0 mi WNW 17.3 mph - N/A   Clear
4:53 AM 46.9 °F - 35.1 °F 63% 30.11 in 10.0 mi WNW 18.4 mph - N/A   Clear
5:53 AM 46.9 °F - 35.1 °F 63% 30.13 in 10.0 mi WNW 13.8 mph - N/A   Mostly Cloudy
6:53 AM 46.9 °F - 35.1 °F 63% 30.14 in 10.0 mi NW 15.0 mph - N/A   Overcast
7:53 AM 48.9 °F - 35.1 °F 59% 30.14 in 10.0 mi WNW 19.6 mph - N/A   Scattered Clouds
8:53 AM 50.0 °F - 36.0 °F 59% 30.15 in 10.0 mi NW 17.3 mph - N/A   Overcast
9:53 AM 51.1 °F - 36.0 °F 56% 30.15 in 10.0 mi NW 20.7 mph - N/A   Overcast
10:53 AM 54.0 °F - 36.0 °F 51% 30.16 in 10.0 mi NW 19.6 mph 24.2 mph N/A   Scattered Clouds
11:53 AM 57.9 °F - 36.0 °F 44% 30.15 in 10.0 mi WNW 20.7 mph 29.9 mph N/A   Clear
12:53 PM 59.0 °F - 36.0 °F 42% 30.15 in 10.0 mi WNW 27.6 mph 35.7 mph N/A   Clear
1:53 PM 59.0 °F - 35.1 °F 41% 30.14 in 10.0 mi WNW 19.6 mph 32.2 mph N/A   Clear
2:53 PM 59.0 °F - 35.1 °F 41% 30.13 in 10.0 mi NW 23.0 mph 33.4 mph N/A   Clear
3:53 PM 57.9 °F - 36.0 °F 44% 30.12 in 10.0 mi NW 26.5 mph 35.7 mph N/A   Clear
4:53 PM 53.1 °F - 35.1 °F 50% 30.14 in 10.0 mi NW 26.5 mph 38.0 mph N/A   Partly Cloudy
5:53 PM 54.0 °F - 35.1 °F 49% 30.14 in 10.0 mi WNW 27.6 mph 34.5 mph N/A   Clear
6:53 PM 52.0 °F - 35.1 °F 53% 30.13 in 10.0 mi WNW 21.9 mph 27.6 mph N/A   Mostly Cloudy
7:53 PM 48.9 °F - 35.1 °F 59% 30.13 in 10.0 mi NW 18.4 mph 29.9 mph N/A   Clear
8:53 PM 48.0 °F - 35.1 °F 61% 30.14 in 10.0 mi NW 19.6 mph - N/A   Clear
9:53 PM 46.9 °F - 35.1 °F 63% 30.15 in 10.0 mi NW 11.5 mph - N/A   Clear
10:53 PM 45.0 °F 39.3 °F 35.1 °F 68% 30.16 in 10.0 mi NW 11.5 mph - N/A   Overcast
11:53 PM 45.0 °F 38.9 °F 34.0 °F 65% 30.16 in 10.0 mi NW 12.7 mph - N/A   Overcast